User: anonymous   Login
Location: Bidwell Hollow
(37.7387°N, 90.1707°W)
Time: 14:31:19
(UTC+00:00)
Language:

ACS3 Solar Sail - Orbit

View from above orbital plane
View from above orbital plane
View from above satellite
View from above satellite

Ground track
Ground track

The orbit data is extracted from the following two-line orbital elements,

1 59588U 24077B   25343.64840030  .00032812  00000-0  28136-1 0  9994
2 59588  97.2710 299.9445 0077938 345.3697  14.5208 13.85240551 81717
Epoch (UTC): 09 December 2025 15:33:41
Eccentricity: 0.0077938
inclination: 97.2710°
perigee height: 888 km
apogee height: 1002 km
right ascension of ascending node: 299.9445°
argument of perigee: 345.3697°
revolutions per day: 13.85240551
mean anomaly at epoch: 14.5208°
orbit number at epoch: 8171

The dashed part of the orbit path shows where the satellite is in the earth's shadow,  

DLR